Location: Oregon Trail
(41.1872°N, 102.0741°W)
Time: 15:28:20
(UTC+00:00)

Cosmos 972 Rocket - Pass Details

Date: 19 November 2019
Orbit: 713 x 1151 km, 75.8° (Epoch: 10 December)

Event Time Altitude Azimuth Distance (km) Brightness Sun altitude
Rises 12:45:20 0° 202° (SSW) 3,131 7.1 -10.6°
Reaches altitude 10° 12:47:35 10° 205° (SSW) 2,242 6.3 -10.2°
Maximum altitude 12:52:36 69° 289° (WNW) 836 4.0 -9.3°
Drops below altitude 10° 12:58:09 10° 13° (NNE) 2,473 6.6 -8.3°
Sets 13:00:44 0° 16° (NNE) 3,481 7.4 -7.8°
